User: anonymous
Location: Caltech
(34.1382°N, 118.1253°W)
Time: 20:57:17
(UTC-07:00)
Language:

Meteor 2-4 Rocket - Orbit

View from above orbital plane
View from above orbital plane
View from above satellite
View from above satellite

Ground track
Ground track

The orbit data is extracted from the following two-line orbital elements,

1 11289U 79021B   14114.24594921  .00000154  00000-0  76292-4 0  6141
2 11289 081.2485 205.9363 0074909 255.8284 133.4572 14.11421776808614
Epoch (UTC): 24 April 2014 05:54:10
Eccentricity: 0.0074909
inclination: 81.2485°
perigee height: 800 km
apogee height: 908 km
right ascension of ascending node: 205.9363°
argument of perigee: 255.8284°
revolutions per day: 14.11421776
mean anomaly at epoch: 133.4572°
orbit number at epoch: 80861

The dashed part of the orbit path shows where the satellite is in the earth's shadow,  

DLR